Location: Peach Mountain Observatory
(42.3967°N, 83.9367°W)
Time: 20:07:37
(UTC-04:00)

deb Explorer IX - Pass Details

Date: 25 January 2020
Orbit: 547 x 1101 km, 38.8° (Epoch: 28 March)

Event Time Altitude Azimuth Distance (km) Brightness Sun altitude
Rises 01:05:15 0° 267° (W) 3,885 - -66.4°
Reaches altitude 10° 01:08:01 10° 265° (W) 2,947 - -66.3°
Maximum altitude 01:15:16 66° 185° (S) 1,180 - -66.0°
Drops below altitude 10° 01:22:12 10° 105° (ESE) 2,830 - -65.6°
Sets 01:24:49 0° 103° (ESE) 3,721 - -65.4°
